Radiation Dose at Monitoring Post of Fukushima Daini Nuclear Power Station
Date,Time,MP-1(microSv/h),MP-2(microSv/h),MP-3(microSv/h),MP-4(microSv/h),MP-5(microSv/h),MP-6(microSv/h),MP-7(microSv/h),Wind Direction,Wind Velocity(m/s),Rain
2023/10/16,00:00,0.142,0.128,0.206,0.195,0.205,0.114,0.074,northwest,2.8,No
2023/10/16,00:10,0.141,0.129,0.207,0.196,0.203,0.115,0.073,west-northwest,4.8,No
2023/10/16,00:20,0.142,0.128,0.206,0.195,0.204,0.114,0.073,northwest,4.3,No
2023/10/16,00:30,0.142,0.128,0.204,0.196,0.204,0.115,0.074,west,2.0,No
2023/10/16,00:40,0.140,0.128,0.206,0.196,0.205,0.114,0.074,west-northwest,2.2,No
2023/10/16,00:50,0.142,0.129,0.205,0.195,0.204,0.114,0.074,south-southwest,1.3,No
2023/10/16,01:00,0.141,0.128,0.206,0.196,0.203,0.114,0.074,southeast,1.0,No
2023/10/16,01:10,0.141,0.128,0.207,0.196,0.205,0.113,0.073,-,CALM,No
2023/10/16,01:20,0.142,0.128,0.204,0.195,0.204,0.115,0.073,west,0.7,No
2023/10/16,01:30,0.142,0.128,0.207,0.196,0.205,0.114,0.074,south-southwest,1.3,No
2023/10/16,01:40,0.142,0.128,0.206,0.196,0.204,0.115,0.074,northwest,0.8,No
2023/10/16,01:50,0.141,0.128,0.206,0.195,0.205,0.114,0.074,northwest,2.1,No
2023/10/16,02:00,0.141,0.128,0.206,0.196,0.204,0.115,0.074,northwest,2.5,No
2023/10/16,02:10,0.141,0.128,0.206,0.195,0.203,0.115,0.075,northwest,1.7,No
2023/10/16,02:20,0.141,0.128,0.205,0.196,0.205,0.114,0.074,north-northwest,1.9,No
2023/10/16,02:30,0.142,0.128,0.207,0.196,0.203,0.115,0.073,north-northwest,1.5,No
2023/10/16,02:40,0.141,0.128,0.206,0.195,0.206,0.115,0.073,north-northwest,1.8,No
2023/10/16,02:50,0.141,0.128,0.206,0.196,0.204,0.113,0.073,west,2.6,No
2023/10/16,03:00,0.142,0.128,0.206,0.196,0.205,0.114,0.073,west,4.4,No
2023/10/16,03:10,0.141,0.128,0.206,0.195,0.204,0.114,0.074,west,6.4,No
2023/10/16,03:20,0.142,0.127,0.207,0.195,0.203,0.114,0.074,west-northwest,7.4,No
2023/10/16,03:30,0.142,0.129,0.207,0.196,0.205,0.114,0.073,west-northwest,5.4,No
2023/10/16,03:40,0.141,0.129,0.206,0.196,0.204,0.114,0.074,west,3.5,No
2023/10/16,03:50,0.142,0.127,0.206,0.196,0.206,0.115,0.073,west-northwest,0.7,No
2023/10/16,04:00,0.141,0.127,0.207,0.196,0.203,0.114,0.074,-,CALM,No
2023/10/16,04:10,0.141,0.128,0.206,0.196,0.205,0.115,0.074,west-northwest,1.8,No
2023/10/16,04:20,0.141,0.128,0.206,0.195,0.204,0.114,0.073,northwest,2.2,No
2023/10/16,04:30,0.141,0.128,0.207,0.196,0.205,0.113,0.074,west-northwest,2.4,No
2023/10/16,04:40,0.141,0.127,0.205,0.196,0.205,0.114,0.073,west-northwest,4.1,No
2023/10/16,04:50,0.141,0.128,0.206,0.195,0.203,0.114,0.073,west-northwest,6.4,No
2023/10/16,05:00,0.142,0.128,0.207,0.196,0.205,0.114,0.074,west-northwest,8.2,No
2023/10/16,05:10,0.143,0.128,0.206,0.196,0.202,0.115,0.073,west-northwest,6.0,No
2023/10/16,05:20,0.141,0.129,0.205,0.195,0.204,0.114,0.073,west-northwest,6.0,No
2023/10/16,05:30,0.142,0.128,0.206,0.196,0.203,0.115,0.074,west-northwest,5.4,No
2023/10/16,05:40,0.141,0.127,0.206,0.196,0.205,0.114,0.073,west-northwest,4.1,No
2023/10/16,05:50,0.142,0.129,0.205,0.195,0.204,0.114,0.074,west-northwest,2.5,No
2023/10/16,06:00,0.141,0.128,0.207,0.196,0.204,0.115,0.073,west,3.3,No
2023/10/16,06:10,0.142,0.128,0.206,0.196,0.206,0.114,0.074,west-northwest,3.6,No
2023/10/16,06:20,0.142,0.128,0.206,0.197,0.204,0.115,0.074,northwest,2.0,No
2023/10/16,06:30,0.141,0.128,0.207,0.196,0.205,0.115,0.074,-,CALM,No
2023/10/16,06:40,0.142,0.128,0.206,0.196,0.203,0.114,0.074,west-northwest,0.7,No
2023/10/16,06:50,0.141,0.127,0.206,0.196,0.205,0.114,0.074,west-northwest,0.8,No
2023/10/16,07:00,0.142,0.128,0.207,0.195,0.203,0.114,0.074,north,0.6,No
2023/10/16,07:10,0.141,0.129,0.206,0.196,0.205,0.114,0.072,north,1.0,No
2023/10/16,07:20,0.141,0.128,0.206,0.195,0.204,0.114,0.073,-,CALM,No
2023/10/16,07:30,0.142,0.127,0.206,0.195,0.204,0.115,0.073,-,CALM,No
2023/10/16,07:40,0.141,0.129,0.205,0.194,0.204,0.113,0.072,-,CALM,Yes
2023/10/16,07:50,0.142,0.127,0.206,0.196,0.204,0.114,0.073,-,CALM,No
2023/10/16,08:00,0.142,0.127,0.204,0.194,0.204,0.115,0.073,west-northwest,1.5,No
2023/10/16,08:10,0.143,0.128,0.206,0.196,0.205,0.114,0.073,west-northwest,2.0,No
2023/10/16,08:20,0.142,0.128,0.206,0.195,0.202,0.114,0.073,west,3.3,No
2023/10/16,08:30,0.142,0.128,0.206,0.195,0.206,0.114,0.073,west,3.9,No
2023/10/16,08:40,0.142,0.127,0.208,0.195,0.203,0.115,0.073,west-southwest,3.1,No
2023/10/16,08:50,0.142,0.129,0.206,0.194,0.206,0.114,0.073,west-southwest,3.1,No
2023/10/16,09:00,0.141,0.128,0.205,0.196,0.204,0.114,0.074,west,4.2,No
2023/10/16,09:10,0.142,0.127,0.205,0.195,0.201,0.114,0.073,west-southwest,3.7,No
2023/10/16,09:20,0.140,0.128,0.206,0.195,0.204,0.114,0.073,west-southwest,3.1,No
2023/10/16,09:30,0.140,0.129,0.206,0.193,0.205,0.114,0.073,west-southwest,3.0,No
2023/10/16,09:40,0.140,0.128,0.205,0.192,0.202,0.114,0.073,west,3.3,No
2023/10/16,09:50,0.140,0.128,0.207,0.196,0.202,0.114,0.073,west,2.9,No
2023/10/16,10:00,0.142,0.128,0.205,0.197,0.202,0.113,0.073,west,3.7,No
2023/10/16,10:10,0.142,0.127,0.203,0.195,0.203,0.114,0.073,west-northwest,4.0,No
2023/10/16,10:20,0.141,0.127,0.204,0.194,0.205,0.115,0.074,west,5.6,No
2023/10/16,10:30,0.141,0.128,0.206,0.193,0.206,0.115,0.073,west-northwest,4.4,No
2023/10/16,10:40,0.141,0.128,0.206,0.194,0.204,0.115,0.074,west,4.0,No
2023/10/16,10:50,0.140,0.128,0.206,0.194,0.204,0.115,0.073,west,3.3,No
2023/10/16,11:00,0.142,0.128,0.205,0.194,0.203,0.115,0.073,west-northwest,4.2,No
2023/10/16,11:10,0.140,0.127,0.204,0.197,0.203,0.114,0.073,west-northwest,3.0,No
2023/10/16,11:20,0.141,0.127,0.204,0.198,0.203,0.115,0.074,northwest,3.4,No
2023/10/16,11:30,0.142,0.127,0.204,0.197,0.204,0.115,0.074,northwest,3.3,No
2023/10/16,11:40,0.141,0.127,0.204,0.196,0.204,0.115,0.074,northwest,3.2,No
2023/10/16,11:50,0.141,0.127,0.206,0.196,0.204,0.115,0.074,north-northwest,4.2,No
2023/10/16,12:00,0.141,0.129,0.208,0.195,0.204,0.115,0.073,north,3.4,No
2023/10/16,12:10,0.144,0.129,0.209,0.195,0.204,0.114,0.074,north-northwest,1.7,No
2023/10/16,12:20,0.144,0.129,0.207,0.196,0.205,0.115,0.074,northwest,2.3,No
2023/10/16,12:30,0.143,0.129,0.207,0.194,0.204,0.115,0.074,north,0.9,No
2023/10/16,12:40,0.142,0.128,0.207,0.195,0.204,0.116,0.073,north-northwest,1.5,No
2023/10/16,12:50,0.141,0.128,0.206,0.196,0.204,0.115,0.074,northeast,1.3,No
2023/10/16,13:00,0.142,0.128,0.206,0.196,0.204,0.117,0.074,north,0.6,No
2023/10/16,13:10,0.143,0.130,0.208,0.199,0.204,0.116,0.074,west-northwest,1.9,No
2023/10/16,13:20,0.144,0.129,0.209,0.197,0.204,0.116,0.075,west-northwest,6.6,No
2023/10/16,13:30,0.143,0.128,0.206,0.197,0.203,0.115,0.074,west-northwest,6.3,No
2023/10/16,13:40,0.142,0.129,0.205,0.196,0.205,0.116,0.075,west-northwest,6.1,No
2023/10/16,13:50,0.140,0.130,0.206,0.195,0.205,0.116,0.074,west-northwest,5.8,No
2023/10/16,14:00,0.142,0.128,0.210,0.197,0.205,0.116,0.073,west-northwest,4.5,No
2023/10/16,14:10,0.144,0.128,0.208,0.199,0.207,0.116,0.073,west,6.4,No
2023/10/16,14:20,0.144,0.128,0.207,0.198,0.208,0.117,0.074,west-northwest,7.5,No
2023/10/16,14:30,0.143,0.128,0.208,0.195,0.205,0.116,0.075,west-northwest,7.2,No
2023/10/16,14:40,0.142,0.129,0.209,0.198,0.206,0.116,0.074,west,6.1,No
2023/10/16,14:50,0.141,0.130,0.207,0.198,0.208,0.115,0.074,west-northwest,5.6,No
2023/10/16,15:00,0.141,0.129,0.210,0.197,0.207,0.115,0.075,west,4.6,No
2023/10/16,15:10,0.144,0.130,0.209,0.198,0.206,0.116,0.074,west-northwest,2.8,No
2023/10/16,15:20,0.144,0.129,0.208,0.199,0.208,0.116,0.074,west,4.8,No
2023/10/16,15:30,0.143,0.129,0.210,0.198,0.205,0.116,0.074,west,4.2,No
2023/10/16,15:40,0.144,0.130,0.208,0.199,0.206,0.115,0.074,west,2.6,No
2023/10/16,15:50,0.144,0.129,0.209,0.197,0.208,0.117,0.075,west,2.9,No
2023/10/16,16:00,0.144,0.131,0.207,0.198,0.206,0.116,0.075,west,3.0,No
2023/10/16,16:10,0.145,0.129,0.209,0.200,0.205,0.116,0.074,west,2.7,No
2023/10/16,16:20,0.143,0.130,0.208,0.198,0.207,0.117,0.076,west,2.7,No
2023/10/16,16:30,0.144,0.130,0.209,0.198,0.205,0.116,0.075,west-southwest,1.8,No
2023/10/16,16:40,0.143,0.129,0.209,0.198,0.208,0.117,0.075,west,1.8,No
2023/10/16,16:50,0.144,0.130,0.209,0.200,0.205,0.116,0.074,west-southwest,1.0,No
2023/10/16,17:00,0.144,0.130,0.209,0.198,0.205,0.116,0.074,west-southwest,1.7,No
2023/10/16,17:10,0.144,0.130,0.209,0.199,0.207,0.116,0.075,west-southwest,2.6,No
2023/10/16,17:20,0.144,0.129,0.208,0.197,0.206,0.117,0.074,west,2.7,No
2023/10/16,17:30,0.143,0.130,0.209,0.200,0.206,0.116,0.074,west,4.3,No
2023/10/16,17:40,0.144,0.130,0.209,0.198,0.206,0.116,0.074,west,4.5,No
2023/10/16,17:50,0.144,0.129,0.210,0.199,0.207,0.116,0.074,west,3.6,No
2023/10/16,18:00,0.143,0.130,0.208,0.199,0.206,0.116,0.075,west,1.9,No
2023/10/16,18:10,0.144,0.128,0.209,0.199,0.208,0.116,0.074,west-northwest,3.7,No
2023/10/16,18:20,0.143,0.131,0.209,0.199,0.206,0.115,0.075,west,3.2,No
2023/10/16,18:30,0.144,0.130,0.209,0.200,0.208,0.116,0.074,west-northwest,1.9,No
2023/10/16,18:40,0.143,0.129,0.209,0.199,0.204,0.116,0.075,west-northwest,2.1,No
2023/10/16,18:50,0.144,0.130,0.208,0.199,0.207,0.116,0.074,west-northwest,6.5,No
2023/10/16,19:00,0.143,0.129,0.211,0.198,0.204,0.115,0.075,west-northwest,6.6,No
2023/10/16,19:10,0.144,0.130,0.209,0.198,0.206,0.116,0.075,west-northwest,6.4,No
2023/10/16,19:20,0.143,0.130,0.208,0.200,0.207,0.117,0.074,west,5.2,No
2023/10/16,19:30,0.145,0.130,0.209,0.199,0.206,0.115,0.074,west,8.7,No
2023/10/16,19:40,0.143,0.129,0.209,0.199,0.207,0.117,0.074,west,9.8,No
2023/10/16,19:50,0.145,0.130,0.208,0.198,0.206,0.115,0.074,west-northwest,9.6,No
2023/10/16,20:00,0.144,0.129,0.208,0.198,0.208,0.117,0.075,west,9.6,No
2023/10/16,20:10,0.143,0.130,0.210,0.198,0.206,0.116,0.074,west,10.9,No
2023/10/16,20:20,0.143,0.129,0.208,0.200,0.208,0.116,0.074,west,11.2,No
2023/10/16,20:30,0.144,0.129,0.209,0.199,0.206,0.116,0.074,west,10.1,No
2023/10/16,20:40,0.144,0.130,0.209,0.199,0.208,0.117,0.075,west-northwest,7.8,No
2023/10/16,20:50,0.144,0.131,0.210,0.198,0.205,0.116,0.075,west-northwest,7.8,No
2023/10/16,21:00,0.144,0.130,0.210,0.200,0.208,0.117,0.075,west,7.8,No
2023/10/16,21:10,0.144,0.130,0.210,0.199,0.205,0.117,0.075,west,8.2,No
2023/10/16,21:20,0.144,0.131,0.209,0.200,0.208,0.116,0.075,west,8.8,No
2023/10/16,21:30,0.144,0.130,0.210,0.199,0.205,0.117,0.075,west,9.5,No
2023/10/16,21:40,0.144,0.129,0.210,0.199,0.208,0.116,0.075,west-northwest,8.4,No
2023/10/16,21:50,0.144,0.130,0.209,0.199,0.206,0.117,0.075,west-northwest,9.0,No
2023/10/16,22:00,0.145,0.130,0.210,0.200,0.207,0.116,0.075,west-northwest,8.2,No
2023/10/16,22:10,0.143,0.131,0.208,0.199,0.207,0.117,0.075,west-northwest,8.5,No
2023/10/16,22:20,0.144,0.130,0.210,0.199,0.207,0.117,0.075,west,8.8,No
2023/10/16,22:30,0.143,0.130,0.209,0.199,0.207,0.117,0.074,west,7.7,No
2023/10/16,22:40,0.145,0.130,0.210,0.198,0.207,0.118,0.075,west,7.8,Yes
2023/10/16,22:50,0.143,0.130,0.209,0.199,0.207,0.116,0.075,west,7.8,Yes
2023/10/16,23:00,0.144,0.131,0.211,0.200,0.206,0.117,0.075,west,6.7,Yes
2023/10/16,23:10,0.144,0.131,0.209,0.200,0.208,0.117,0.075,west-northwest,8.5,No
2023/10/16,23:20,0.144,0.130,0.210,0.198,0.206,0.118,0.075,west,9.5,No
2023/10/16,23:30,0.145,0.131,0.210,0.199,0.209,0.116,0.074,west-northwest,8.8,Yes
2023/10/16,23:40,0.145,0.130,0.210,0.198,0.206,0.117,0.075,west,9.2,Yes
2023/10/16,23:50,0.145,0.130,0.209,0.200,0.207,0.117,0.075,west,7.9,No
